When you browse on this site, cookies collect data to enhance your experience and personalize the content and advertising you see.
Visit our Privacy Policy to learn more. By continuing to use the site, you agree to this use of cookies and data.
  • In United Kingdom
  • List of Countries
  • For 7 days
  • Water Temperature
  • Weather Map
  • Weather Widgets
  • user-avatar
    Login

    Hourly Weather Santiago del Estero

    Today, 29 May, Friday

    Time Temperature Precipitation Wind Pressure Humidity
    00:00 +18°C° 0 mm 1 mps 741 mmHg 60%
    01:00 +16°C° 0 mm 1 mps 741 mmHg 62%
    02:00 +15°C° 0 mm 1 mps 741 mmHg 65%
    03:00 +15°C° 0 mm 1 mps 741 mmHg 67%
    04:00 +14°C° 0 mm 1 mps 741 mmHg 69%
    05:00 +14°C° 0 mm 1 mps 741 mmHg 71%
    06:00 +15°C° 0 mm 1 mps 741 mmHg 68%
    07:00 +16°C° 0 mm 1 mps 742 mmHg 65%
    08:00 +16°C° 0 mm 1 mps 742 mmHg 62%
    09:00 +19°C° 0 mm 2 mps 742 mmHg 55%
    10:00 +21°C° 0 mm 2 mps 742 mmHg 48%
    11:00 +24°C° 0 mm 3 mps 742 mmHg 42%
    12:00 +26°C° 0 mm 3 mps 741 mmHg 39%
    13:00 +27°C° 0 mm 3 mps 740 mmHg 36%
    14:00 +28°C° 0 mm 4 mps 740 mmHg 34%
    15:00 +27°C° 0 mm 3 mps 739 mmHg 37%
    16:00 +26°C° 0 mm 2 mps 739 mmHg 40%
    17:00 +25°C° 0 mm 2 mps 739 mmHg 44%
    18:00 +24°C° 0 mm 2 mps 739 mmHg 47%
    19:00 +21°C° 0 mm 2 mps 740 mmHg 51%
    20:00 +20°C° 0 mm 2 mps 740 mmHg 55%
    21:00 +20°C° 0 mm 1 mps 740 mmHg 58%
    22:00 +20°C° 0 mm 1 mps 740 mmHg 61%
    23:00 +19°C° 0 mm 1 mps 741 mmHg 64%

    Tomorrow, 30 May, Saturday

    Time Temperature Precipitation Wind Pressure Humidity
    00:00 +19°C° 0 mm 1 mps 741 mmHg 67%
    01:00 +18°C° 0 mm 1 mps 741 mmHg 71%
    02:00 +18°C° 0 mm 1 mps 740 mmHg 74%
    03:00 +17°C° 0 mm 2 mps 741 mmHg 72%
    04:00 +17°C° 0 mm 2 mps 742 mmHg 71%
    05:00 +17°C° 0 mm 3 mps 742 mmHg 69%
    06:00 +17°C° 0 mm 4 mps 743 mmHg 69%
    07:00 +15°C° 0 mm 5 mps 744 mmHg 70%
    08:00 +15°C° 0 mm 6 mps 744 mmHg 70%
    09:00 +16°C° 0 mm 7 mps 745 mmHg 66%
    10:00 +17°C° 0 mm 7 mps 745 mmHg 61%
    11:00 +17°C° 0 mm 7 mps 746 mmHg 57%
    12:00 +17°C° 0 mm 7 mps 746 mmHg 56%
    13:00 +17°C° 0 mm 7 mps 745 mmHg 54%
    14:00 +17°C° 0 mm 7 mps 745 mmHg 53%
    15:00 +17°C° 0 mm 6 mps 746 mmHg 53%
    16:00 +17°C° 0 mm 6 mps 746 mmHg 54%
    17:00 +17°C° 0 mm 5 mps 746 mmHg 54%
    18:00 +16°C° 0 mm 5 mps 747 mmHg 54%
    19:00 +15°C° 0 mm 5 mps 748 mmHg 53%
    20:00 +15°C° 0 mm 5 mps 748 mmHg 53%
    21:00 +14°C° 0 mm 5 mps 749 mmHg 56%
    22:00 +14°C° 0 mm 4 mps 749 mmHg 58%
    23:00 +13°C° 0 mm 4 mps 750 mmHg 61%

    Day after tomorrow, 31 May, Sunday

    Time Temperature Precipitation Wind Pressure Humidity
    00:00 +13°C° 0 mm 4 mps 749 mmHg 59%
    01:00 +13°C° 0 mm 4 mps 749 mmHg 57%
    02:00 +13°C° 0 mm 3 mps 749 mmHg 54%
    03:00 +13°C° 0 mm 3 mps 749 mmHg 51%
    04:00 +14°C° 0 mm 2 mps 749 mmHg 47%
    05:00 +14°C° 0 mm 2 mps 749 mmHg 44%
    06:00 +14°C° 0 mm 2 mps 750 mmHg 41%
    07:00 +12°C° 0 mm 3 mps 750 mmHg 38%
    08:00 +12°C° 0 mm 3 mps 750 mmHg 36%
    09:00 +12°C° 0 mm 3 mps 750 mmHg 38%
    10:00 +12°C° 0 mm 3 mps 751 mmHg 40%
    11:00 +12°C° 0 mm 3 mps 751 mmHg 43%
    12:00 +12°C° 0 mm 3 mps 750 mmHg 44%
    13:00 +12°C° 0 mm 3 mps 749 mmHg 45%
    14:00 +12°C° 0 mm 3 mps 749 mmHg 45%
    15:00 +12°C° 0 mm 3 mps 749 mmHg 45%
    16:00 +13°C° 0 mm 2 mps 748 mmHg 46%
    17:00 +13°C° 0 mm 2 mps 748 mmHg 46%
    18:00 +13°C° 0 mm 1 mps 749 mmHg 46%
    19:00 +13°C° 0 mm 1 mps 749 mmHg 47%
    20:00 +12°C° 0 mm 0 mps 750 mmHg 47%
    21:00 +12°C° 0 mm 0 mps 750 mmHg 47%
    22:00 +12°C° 0 mm 0 mps 750 mmHg 48%
    23:00 +13°C° 0 mm 1 mps 750 mmHg 48%

    1 June, Monday

    Time Temperature Precipitation Wind Pressure Humidity
    00:00 +12°C° 0 mm 1 mps 750 mmHg 48%
    01:00 +12°C° 0 mm 1 mps 750 mmHg 49%
    02:00 +12°C° 0 mm 1 mps 750 mmHg 50%
    03:00 +12°C° 0 mm 1 mps 750 mmHg 50%
    04:00 +12°C° 0 mm 1 mps 750 mmHg 51%
    05:00 +11°C° 0 mm 1 mps 750 mmHg 51%
    06:00 +12°C° 0 mm 1 mps 750 mmHg 52%
    07:00 +12°C° 0 mm 1 mps 750 mmHg 54%
    08:00 +12°C° 0 mm 1 mps 751 mmHg 55%
    09:00 +13°C° 0 mm 1 mps 751 mmHg 49%
    10:00 +15°C° 0 mm 1 mps 751 mmHg 42%
    11:00 +18°C° 0 mm 1 mps 751 mmHg 36%
    12:00 +19°C° 0 mm 1 mps 750 mmHg 34%
    13:00 +20°C° 0 mm 1 mps 749 mmHg 33%
    14:00 +20°C° 0 mm 1 mps 748 mmHg 31%
    15:00 +20°C° 0 mm 1 mps 748 mmHg 34%
    16:00 +19°C° 0 mm 1 mps 748 mmHg 37%
    17:00 +18°C° 0 mm 1 mps 747 mmHg 40%
    18:00 +16°C° 0 mm 2 mps 748 mmHg 43%
    19:00 +14°C° 0 mm 2 mps 748 mmHg 46%
    20:00 +13°C° 0 mm 2 mps 748 mmHg 48%
    21:00 +12°C° 0 mm 2 mps 748 mmHg 49%
    22:00 +12°C° 0 mm 2 mps 748 mmHg 49%
    23:00 +10°C° 0 mm 2 mps 748 mmHg 49%

    2 June, Tuesday

    Time Temperature Precipitation Wind Pressure Humidity
    00:00 +10°C° 0 mm 2 mps 748 mmHg 51%
    01:00 +9°C° 0 mm 2 mps 748 mmHg 52%
    02:00 +9°C° 0 mm 2 mps 748 mmHg 54%
    03:00 +8°C° 0 mm 2 mps 747 mmHg 56%
    04:00 +8°C° 0 mm 2 mps 747 mmHg 58%
    05:00 +7°C° 0 mm 2 mps 747 mmHg 60%
    06:00 +8°C° 0 mm 2 mps 747 mmHg 60%
    07:00 +8°C° 0 mm 2 mps 747 mmHg 59%
    08:00 +9°C° 0 mm 2 mps 747 mmHg 58%
    09:00 +11°C° 0 mm 3 mps 747 mmHg 52%
    10:00 +14°C° 0 mm 3 mps 747 mmHg 45%
    11:00 +17°C° 0 mm 4 mps 746 mmHg 39%
    12:00 +19°C° 0 mm 4 mps 745 mmHg 37%
    13:00 +20°C° 0 mm 4 mps 744 mmHg 35%
    14:00 +21°C° 0 mm 5 mps 744 mmHg 33%
    15:00 +21°C° 0 mm 4 mps 743 mmHg 35%
    16:00 +20°C° 0 mm 4 mps 743 mmHg 37%
    17:00 +19°C° 0 mm 3 mps 742 mmHg 39%
    18:00 +18°C° 0 mm 3 mps 742 mmHg 41%
    19:00 +15°C° 0 mm 4 mps 742 mmHg 43%
    20:00 +14°C° 0 mm 4 mps 743 mmHg 44%
    21:00 +13°C° 0 mm 4 mps 743 mmHg 47%
    22:00 +12°C° 0 mm 4 mps 743 mmHg 49%
    23:00 +12°C° 0 mm 4 mps 743 mmHg 51%

    3 June, Wednesday

    Time Temperature Precipitation Wind Pressure Humidity
    00:00 +11°C° 0 mm 4 mps 743 mmHg 54%
    01:00 +11°C° 0 mm 4 mps 742 mmHg 56%
    02:00 +10°C° 0 mm 4 mps 742 mmHg 58%
    03:00 +10°C° 0 mm 3 mps 743 mmHg 60%
    04:00 +9°C° 0 mm 3 mps 743 mmHg 62%
    05:00 +8°C° 0 mm 3 mps 743 mmHg 64%
    06:00 +9°C° 0 mm 3 mps 745 mmHg 63%
    07:00 +9°C° 0 mm 3 mps 746 mmHg 62%
    08:00 +9°C° 0 mm 2 mps 747 mmHg 62%
    09:00 +11°C° 0 mm 3 mps 748 mmHg 57%
    10:00 +13°C° 0 mm 3 mps 748 mmHg 52%
    11:00 +14°C° 0 mm 3 mps 749 mmHg 47%
    12:00 +14°C° 0 mm 3 mps 749 mmHg 49%
    13:00 +14°C° 0 mm 4 mps 749 mmHg 51%
    14:00 +13°C° 0 mm 4 mps 749 mmHg 53%
    15:00 +12°C° 0.1 mm 4 mps 750 mmHg 58%
    16:00 +12°C° 0.1 mm 4 mps 750 mmHg 63%
    17:00 +11°C° 0.1 mm 4 mps 751 mmHg 68%
    18:00 +11°C° 0.1 mm 4 mps 751 mmHg 68%
    19:00 +11°C° 0.1 mm 4 mps 752 mmHg 69%
    20:00 +11°C° 0.1 mm 3 mps 753 mmHg 70%
    21:00 +11°C° 0 mm 3 mps 753 mmHg 70%
    22:00 +11°C° 0 mm 3 mps 753 mmHg 71%
    23:00 +10°C° 0 mm 3 mps 753 mmHg 72%
    Show more